When you browse on this site, cookies collect data to enhance your experience and personalize the content and advertising you see.
Visit our Privacy Policy to learn more. By continuing to use the site, you agree to this use of cookies and data.
  • In Romania
  • List of Countries
  • For 7 days
  • Water Temperature
  • Satellite Maps
  • Weather Map
  • Weather Widgets
  • user-avatar
    Login

    Hourly Weather Pitsunda

    Today, 19 March, Tuesday

    Time Temperature Precipitation Wind Pressure Humidity
    00:00 +5°C° 0 mm 2 mps 768 mmHg 80%
    01:00 +5°C° 0 mm 2 mps 768 mmHg 78%
    02:00 +4°C° 0 mm 3 mps 768 mmHg 77%
    03:00 +4°C° 0 mm 3 mps 768 mmHg 75%
    04:00 +4°C° 0 mm 3 mps 768 mmHg 75%
    05:00 +4°C° 0 mm 4 mps 768 mmHg 74%
    06:00 +4°C° 0 mm 4 mps 768 mmHg 73%
    07:00 +5°C° 0 mm 3 mps 767 mmHg 70%
    08:00 +8°C° 0 mm 3 mps 767 mmHg 66%
    09:00 +10°C° 0 mm 3 mps 767 mmHg 62%
    10:00 +11°C° 0 mm 3 mps 767 mmHg 63%
    11:00 +13°C° 0 mm 2 mps 767 mmHg 64%
    12:00 +14°C° 0 mm 2 mps 767 mmHg 65%
    13:00 +14°C° 0 mm 2 mps 766 mmHg 66%
    14:00 +14°C° 0 mm 2 mps 766 mmHg 68%
    15:00 +14°C° 0 mm 2 mps 766 mmHg 69%
    16:00 +13°C° 0 mm 2 mps 766 mmHg 74%
    17:00 +12°C° 0 mm 2 mps 765 mmHg 79%
    18:00 +10°C° 0 mm 2 mps 765 mmHg 83%
    19:00 +10°C° 0 mm 2 mps 765 mmHg 81%
    20:00 +9°C° 0 mm 2 mps 765 mmHg 79%
    21:00 +10°C° 0 mm 1 mps 765 mmHg 77%
    22:00 +9°C° 0 mm 2 mps 765 mmHg 75%
    23:00 +9°C° 0 mm 2 mps 765 mmHg 72%

    Tomorrow, 20 March, Wednesday

    Time Temperature Precipitation Wind Pressure Humidity
    00:00 +9°C° 0 mm 2 mps 765 mmHg 69%
    01:00 +8°C° 0 mm 2 mps 765 mmHg 67%
    02:00 +8°C° 0 mm 2 mps 765 mmHg 65%
    03:00 +8°C° 0 mm 2 mps 765 mmHg 63%
    04:00 +8°C° 0 mm 2 mps 765 mmHg 63%
    05:00 +8°C° 0 mm 2 mps 764 mmHg 62%
    06:00 +8°C° 0 mm 2 mps 764 mmHg 61%
    07:00 +11°C° 0 mm 1 mps 764 mmHg 58%
    08:00 +13°C° 0 mm 1 mps 764 mmHg 55%
    09:00 +14°C° 0 mm 0 mps 764 mmHg 52%
    10:00 +15°C° 0 mm 1 mps 764 mmHg 53%
    11:00 +16°C° 0 mm 1 mps 764 mmHg 54%
    12:00 +16°C° 0 mm 2 mps 764 mmHg 55%
    13:00 +16°C° 0 mm 2 mps 764 mmHg 57%
    14:00 +16°C° 0 mm 3 mps 764 mmHg 59%
    15:00 +16°C° 0 mm 3 mps 764 mmHg 61%
    16:00 +14°C° 0 mm 3 mps 764 mmHg 68%
    17:00 +13°C° 0 mm 3 mps 764 mmHg 74%
    18:00 +11°C° 0 mm 3 mps 764 mmHg 81%
    19:00 +12°C° 0 mm 2 mps 764 mmHg 81%
    20:00 +10°C° 0 mm 2 mps 765 mmHg 80%
    21:00 +11°C° 0 mm 1 mps 765 mmHg 80%
    22:00 +10°C° 0 mm 1 mps 765 mmHg 80%
    23:00 +10°C° 0 mm 1 mps 765 mmHg 80%

    Day after tomorrow, 21 March, Thursday

    Time Temperature Precipitation Wind Pressure Humidity
    00:00 +10°C° 0 mm 1 mps 765 mmHg 80%
    01:00 +10°C° 0 mm 1 mps 766 mmHg 80%
    02:00 +9°C° 0 mm 1 mps 766 mmHg 80%
    03:00 +8°C° 0 mm 0 mps 766 mmHg 81%
    04:00 +9°C° 0 mm 1 mps 766 mmHg 80%
    05:00 +9°C° 0 mm 1 mps 766 mmHg 80%
    06:00 +9°C° 0 mm 1 mps 766 mmHg 80%
    07:00 +9°C° 0 mm 2 mps 766 mmHg 76%
    08:00 +10°C° 0 mm 2 mps 767 mmHg 73%
    09:00 +11°C° 0 mm 3 mps 767 mmHg 69%
    10:00 +12°C° 0 mm 3 mps 767 mmHg 69%
    11:00 +13°C° 0 mm 3 mps 767 mmHg 68%
    12:00 +13°C° 0 mm 3 mps 767 mmHg 67%
    13:00 +13°C° 0 mm 3 mps 767 mmHg 69%
    14:00 +13°C° 0 mm 3 mps 766 mmHg 71%
    15:00 +13°C° 0 mm 3 mps 766 mmHg 73%
    16:00 +13°C° 0 mm 2 mps 766 mmHg 78%
    17:00 +12°C° 0 mm 2 mps 766 mmHg 83%
    18:00 +10°C° 0 mm 2 mps 766 mmHg 88%
    19:00 +9°C° 0 mm 3 mps 767 mmHg 89%
    20:00 +9°C° 0 mm 3 mps 767 mmHg 90%
    21:00 +7°C° 0 mm 4 mps 767 mmHg 91%
    22:00 +6°C° 0 mm 4 mps 767 mmHg 89%
    23:00 +6°C° 0 mm 5 mps 767 mmHg 86%

    22 March, Friday

    Time Temperature Precipitation Wind Pressure Humidity
    00:00 +6°C° 0 mm 5 mps 767 mmHg 83%
    01:00 +6°C° 0 mm 5 mps 767 mmHg 80%
    02:00 +6°C° 0 mm 5 mps 767 mmHg 76%
    03:00 +6°C° 0 mm 5 mps 767 mmHg 72%
    04:00 +6°C° 0.2 mm 5 mps 767 mmHg 76%
    05:00 +7°C° 0.2 mm 4 mps 767 mmHg 79%
    06:00 +7°C° 0.2 mm 4 mps 766 mmHg 83%
    07:00 +7°C° 1.3 mm 4 mps 766 mmHg 87%
    08:00 +6°C° 1.3 mm 4 mps 766 mmHg 91%
    09:00 +6°C° 1.3 mm 4 mps 767 mmHg 95%
    10:00 +7°C° 0.1 mm 5 mps 767 mmHg 88%
    11:00 +8°C° 0.1 mm 5 mps 767 mmHg 81%
    12:00 +8°C° 0.1 mm 6 mps 767 mmHg 75%
    13:00 +8°C° 0 mm 6 mps 767 mmHg 74%
    14:00 +8°C° 0 mm 6 mps 767 mmHg 73%
    15:00 +8°C° 0 mm 6 mps 767 mmHg 72%
    16:00 +7°C° 0 mm 6 mps 767 mmHg 76%
    17:00 +6°C° 0 mm 5 mps 767 mmHg 80%
    18:00 +5°C° 0 mm 4 mps 768 mmHg 84%
    19:00 +5°C° 0.1 mm 3 mps 768 mmHg 86%
    20:00 +5°C° 0.1 mm 2 mps 768 mmHg 88%
    21:00 +5°C° 0.1 mm 2 mps 769 mmHg 90%
    22:00 +5°C° 0.1 mm 2 mps 769 mmHg 86%
    23:00 +4°C° 0.1 mm 3 mps 769 mmHg 83%

    23 March, Saturday

    Time Temperature Precipitation Wind Pressure Humidity
    00:00 +3°C° 0.1 mm 4 mps 769 mmHg 80%
    01:00 +3°C° 0 mm 4 mps 769 mmHg 77%
    02:00 +3°C° 0 mm 4 mps 769 mmHg 75%
    03:00 +3°C° 0 mm 3 mps 770 mmHg 72%
    04:00 +2°C° 0 mm 3 mps 770 mmHg 73%
    05:00 +2°C° 0 mm 3 mps 770 mmHg 74%
    06:00 +2°C° 0 mm 2 mps 770 mmHg 74%
    07:00 +4°C° 0 mm 2 mps 770 mmHg 72%
    08:00 +6°C° 0 mm 1 mps 770 mmHg 70%
    09:00 +7°C° 0 mm 1 mps 770 mmHg 68%
    10:00 +8°C° 0 mm 1 mps 770 mmHg 69%
    11:00 +8°C° 0 mm 1 mps 770 mmHg 71%
    12:00 +8°C° 0 mm 1 mps 769 mmHg 73%
    13:00 +8°C° 0.1 mm 1 mps 769 mmHg 75%
    14:00 +8°C° 0.1 mm 1 mps 769 mmHg 77%
    15:00 +8°C° 0.1 mm 1 mps 769 mmHg 79%
    16:00 +6°C° 0.3 mm 2 mps 769 mmHg 83%
    17:00 +6°C° 0.3 mm 2 mps 769 mmHg 86%
    18:00 +4°C° 0.3 mm 3 mps 769 mmHg 90%
    19:00 +4°C° 0.6 mm 4 mps 769 mmHg 91%
    20:00 +4°C° 0.6 mm 4 mps 769 mmHg 91%
    21:00 +4°C° 0.6 mm 4 mps 769 mmHg 92%
    22:00 +4°C° 0.5 mm 4 mps 769 mmHg 92%
    23:00 +4°C° 0.5 mm 4 mps 769 mmHg 91%

    24 March, Sunday

    Time Temperature Precipitation Wind Pressure Humidity
    00:00 +4°C° 0.5 mm 4 mps 768 mmHg 91%
    01:00 +4°C° 0.4 mm 4 mps 768 mmHg 91%
    02:00 +4°C° 0.4 mm 4 mps 768 mmHg 90%
    03:00 +4°C° 0.4 mm 4 mps 768 mmHg 90%
    04:00 +4°C° 0.2 mm 4 mps 768 mmHg 91%
    05:00 +4°C° 0.2 mm 4 mps 768 mmHg 92%
    06:00 +4°C° 0.2 mm 4 mps 768 mmHg 93%
    07:00 +5°C° 0.2 mm 4 mps 768 mmHg 93%
    08:00 +5°C° 0.2 mm 4 mps 768 mmHg 93%
    09:00 +6°C° 0.2 mm 4 mps 768 mmHg 93%
    10:00 +6°C° 0.6 mm 4 mps 768 mmHg 93%
    11:00 +7°C° 0.6 mm 4 mps 768 mmHg 93%
    12:00 +7°C° 0.6 mm 5 mps 767 mmHg 93%
    13:00 +7°C° 0.3 mm 5 mps 767 mmHg 93%
    14:00 +7°C° 0.3 mm 5 mps 767 mmHg 93%
    15:00 +7°C° 0.3 mm 4 mps 767 mmHg 94%
    16:00 +7°C° 0.1 mm 4 mps 767 mmHg 94%
    17:00 +7°C° 0.1 mm 4 mps 767 mmHg 95%
    18:00 +7°C° 0.1 mm 4 mps 767 mmHg 96%
    19:00 +7°C° 0.1 mm 4 mps 767 mmHg 95%
    20:00 +7°C° 0.1 mm 4 mps 767 mmHg 95%
    21:00 +7°C° 0.1 mm 5 mps 767 mmHg 94%
    22:00 +7°C° 0 mm 4 mps 767 mmHg 94%
    23:00 +6°C° 0 mm 4 mps 767 mmHg 93%
    Show more